Regional Weather Roundup
Issued by NWS

Home | Current Version | Previous Version | Text Only | Print | Product List | Glossary On
Versions: 1 2 3 4 5 6 7 8 9 10 11 12 13 14 15 16 17 18 19 20 21 22 23 24 25 26 27 28 29 30 31 32 33 34 35 36 37 38 39 40 41 42 43 44 45 46 47 48 49 50
000
ASCA44 KEWX 110220
RWRMX

LATIN AMERICA AND CARIBBEAN REGIONAL WEATHER ROUNDUP
NATIONAL WEATHER SERVICE AUSTIN/SAN ANTONIO TX
800 PM CST WED FEB 10 2016

NOTE: "FAIR" INDICATED FEW OR NO CLOUDS BELOW 12,000 FEET WITH NO
SIGNIFICANT WEATHER AND/OR OBSTRUCTIONS TO VISIBILITY.

BAJA CALIFORNIA

CITY           SKY/WX    TMP DP  RH WIND       PRES   REMARKS
LORETO         PTCLDY    73  55  53 NE6       30.01R
LA PAZ         CLEAR     70  48  46 N7        30.04R
MEXICALI       MOCLDY    75  28  17 W6        30.10S
S.J. DEL CABO  CLEAR     73  54  49 S5        30.02R
TIJUANA        PTCLDY    70  23  17 CALM      30.11R

NORTHWESTERN MEXICO

CITY           SKY/WX    TMP DP  RH WIND       PRES   REMARKS
CULIACAN       PTCLDY    77  64  65 SW7       29.98F
DURANGO        CLEAR     61  25  25 NE6       30.32R
GUAYMAS        CLEAR     75  52  43 CALM      29.97R
HERMOSILLO     CLEAR     81  27  13 SW5       30.05R
CD. JUAREZ     CLEAR     59  28  31 CALM      30.26R
LOS MOCHIS     PTCLDY    73  52  46 NW9       30.00S
OBREGON        PTCLDY    72  54  53 NW5       29.97S

NORTHEASTERN MEXICO

CITY           SKY/WX    TMP DP  RH WIND       PRES   REMARKS
CHIHUAHUA      CLEAR     61  18  18 E9        30.28R
MATAMOROS      CLEAR     57  48  72 SE6       30.33S
MONCLOVA       CLEAR     72  27  18 NE6       30.20S
MONTERREY      CLEAR     64  23  20 SE5       30.24R
NUEVO LAREDO   CLEAR     70  34  26 SE7       30.23S
PIEDRAS NEGRAS   N/A    N/A N/A N/A MISG        N/A
REYNOSA          N/A    N/A N/A N/A MISG        N/A
SALTILLO       CLEAR     57  37  47 N6        30.38R
TORREON        CLEAR     68  32  26 CALM      30.27R
CD. VICTORIA   CLEAR     66  32  28 S7        30.29R

WESTERN MEXICO

CITY           SKY/WX    TMP DP  RH WIND       PRES   REMARKS
AGUASCALIENTES PTCLDY    61  27  27 NE13      30.33R
COLIMA         MOCLDY    73  61  64 W9        30.06R
DEL BAJIO      PTCLDY    61  32  33 NE9       30.37R
GUADALAJARA    CLEAR     61  34  36 CALM      30.23R
MANZANILLO       N/A    N/A N/A N/A MISG        N/A
MAZATLAN       CLEAR     75  66  73 NW5       29.96R
P. VALLARTA    CLEAR     73  68  83 CALM      29.96R
URUAPAN          N/A    N/A N/A N/A MISG        N/A
ZACATECAS      CLEAR     54  27  35 E7        30.37R

CENTRAL MEXICO

CITY           SKY/WX    TMP DP  RH WIND       PRES   REMARKS
CUERNAVACA     MOCLDY    66  36  32 CALM      30.23R
MEXICO CITY    PTCLDY    55  36  47 NW6       30.40R
MORELIA        PTCLDY    61  39  44 NE5       30.27S
POZA RICA      MOCLDY    66  55  68 SE9       30.39R
PUEBLA         MOCLDY    46  34  61 SE7       30.40R WCI  43
QUERETARO      PTCLDY    54  36  50 E12       30.42R
S. LUIS POTOSI CLEAR     52  25  35 CALM      30.40R
TAMPICO        CLEAR     64  54  68 E7        30.35R
TOLUCA         PTCLDY    48  37  66 SE7       30.43R WCI  45

SOUTHERN MEXICO

CITY           SKY/WX    TMP DP  RH WIND       PRES   REMARKS
ACAPULCO       PTCLDY    81  72  74 W5        29.93R
B. DE HUATULCO   N/A    N/A N/A N/A MISG        N/A
OAXACA         CLEAR     57  39  51 NW7       30.37R
P. ESCONDIDO     N/A    N/A N/A N/A MISG        N/A
VERACRUZ       MOCLDY    68  55  64 NE5       30.36R
ZIHUATANEJO    MOCLDY    81  73  78 CALM      29.94R

YUCATAN PENINSULA

CITY           SKY/WX    TMP DP  RH WIND       PRES   REMARKS
CAMPECHE       MOCLDY    68  55  64 N14       30.28R
CANCUN         CLOUDY    63  57  82 W6        30.29S
CHETUMAL         N/A    N/A N/A N/A MISG        N/A
CD. DEL CARMEN   N/A    N/A N/A N/A MISG        N/A
COZUMEL        MOCLDY    64  55  72 N14       30.29R
MERIDA         MOCLDY    66  52  59 N7        30.32R
MINATITLAN     CLOUDY    70  66  88 N12       30.27R
TAPACHULA      CLEAR     81  73  78 CALM      30.00R
TUX. GUTIERREZ PTCLDY    64  48  55 NW17      30.22R
VILLAHERMOSA   MOCLDY    66  61  82 NE5       30.33R

CENTRAL AMERICA

CITY           SKY/WX    TMP DP  RH WIND       PRES   REMARKS
MANAGUA        PTCLDY    81  64  57 E9        29.97R

CARIBBEAN

CITY           SKY/WX    TMP DP  RH WIND       PRES   REMARKS
ARUBA          PTCLDY    79  73  83 NE23      29.94S
CURACAO          N/A     79  73  83 E20       30.00R
KINGSTON       PTCLDY    81  72  74 N10       30.06S
NASSAU         PTCLDY    66  39  37 W8        30.23R
SAN JUAN       PTCLDY    77  70  78 E3        30.13R
SANTO DOMINGO  PTCLDY    77  73  88 N5        30.09
ST. CROIX      MOCLDY    75  68  78 N5        30.12
ST. MAARTEN    PTCLDY    79  70  73 E5        30.12R
ST. THOMAS     CLEAR     77  70  78 E6        30.11

$$




USA.gov is the U.S. government's official web portal to all federal, state and local government web resources and services.